Location: Saint-Restitut
(44.3351°N, 4.7915°E)
Time: 01:43:05
(UTC+00:00)

Cosmos 1844 Rocket - Pass Details

Date: 03 February 2023
Orbit: 825 x 843 km, 71.0° (Epoch: 27 March)

Event Time Altitude Azimuth Distance (km) Brightness Sun altitude
Rises 17:41:45 0° 338° (NNW) 3,374 5.9 -9.2°
Reaches altitude 10° 17:44:17 10° 344° (NNW) 2,437 5.1 -9.6°
Maximum altitude 17:49:41 48° 59° (ENE) 1,066 2.9 -10.5°
Drops below altitude 10° 17:55:02 10° 134° (SE) 2,423 4.8 -11.5°
Sets 17:57:33 0° 139° (SE) 3,354 5.5 -11.9°
